Location: Unspecified
(0.0000°N, 0.0000°E)
Time: 20:09:58
(UTC+00:00)

USA 103 - Pass Details

Date: 14 June 2023
Orbit: 2266 x 38091 km, 62.7° (Epoch: 06 September)

Event Time Altitude Azimuth Distance (km) Brightness Sun altitude
Exits shadow 01:09:52 50° 269° (W) 10,320 7.2 -61.2°
Maximum altitude 11:52:11 80° 255° (WSW) 6,790 8.1 66.7°
Drops below altitude 10° 12:11:32 10° 164° (SSE) 6,077 6.5 66.6°
Sets 12:14:10 0° 162° (SSE) 6,654 6.6 66.5°
